#timestamp,LO_Frequency,Hit,StdDev 
1654772415.2,286047002.0,P
1654772435.1,286047001.4,N
1654772436.0,286047001.4,N
1654772455.8,286046999.7,N
1654772475.6,286047000.3,N
1654772495.5,286047000.0,N
1654772515.3,286047000.3,N
1654772535.1,286047000.5,N
1654772555.9,286047001.0,N
1654772575.7,286047000.7,N
1654772595.6,286046998.6,N
1654772615.4,286047001.0,N
1654772635.2,286047000.8,N
1654772655.1,286046998.2,N
1654772656.0,286046998.2,N
1654772675.8,286047000.6,N
1654772695.6,286047000.7,N
1654772715.5,286046998.1,N
1654772735.3,286047001.0,N
1654772755.2,286047001.2,N
1654772775.9,286047001.1,N
1654772795.7,286047001.2,N
1654772815.6,286047000.0,N
1654772835.4,286047000.8,N
1654772855.3,286047000.5,N
1654772875.1,286047000.6,N
1654772876.0,286047000.6,N
1654772895.8,286047000.0,N
1654772915.7,286047000.6,N
1654772935.5,286047002.7,N
1654772955.3,286047000.6,N
1654772975.2,286047001.0,N
1654772995.0,286046998.2,N
1654772995.9,286046998.2,N
1654773015.8,286046998.2,N
1654773035.6,286046998.1,N
1654773055.4,286047000.8,N
1654773075.3,286047001.0,N
1654773095.1,286046998.5,N
1654773115.9,286047001.0,N
1654773135.7,286047001.0,N
1654773155.5,286047000.2,N
1654773175.4,286047002.4,N
1654773195.2,286047002.4,N
1654773215.0,286047002.7,N
1654773216.0,286047002.7,N
1654773235.8,286047002.5,N
1654773255.6,286047002.4,N
1654773275.5,286047001.8,N
1654773295.3,286047002.0,N
1654773315.1,286047002.5,N
1654773335.9,286047002.6,N
1654773355.7,286047002.6,N
1654773375.6,286046999.8,N
1654773395.4,286047000.1,N
1654773415.2,286047001.1,N
1654773435.1,286047000.1,N
1654773436.0,286047000.1,N
1654773455.8,286046999.8,N
1654773475.6,286047000.1,N
1654773495.5,286047002.3,N
1654773515.3,286047001.6,N
1654773535.2,286047004.4,N
1654773555.9,286047002.1,N
1654773575.7,286047002.8,N
1654773595.6,286047000.1,N
1654773615.4,286046998.1,N
1654773635.2,286046998.1,N
1654773655.1,286047000.9,N
1654773656.0,286047000.9,N
1654773675.8,286047001.1,N
1654773695.7,286047001.0,N
1654773715.5,286046999.8,N
1654773735.3,286047000.3,N
1654773755.2,286047000.1,N
1654773775.0,286047002.1,N
1654773775.9,286047002.1,N
1654773795.7,286047002.3,N
1654773815.6,286047001.5,N
1654773835.4,286047001.9,N
1654773855.3,286047001.8,N
1654773875.1,286047003.7,N
1654773876.0,286047003.7,N
1654773895.8,286047003.6,N
1654773915.7,286047001.5,N
1654773935.5,286047003.7,N
1654773955.4,286047001.9,N
1654773975.2,286047001.9,N
1654773995.0,286047002.0,N
1654773995.9,286047002.0,N
1654774015.8,286047004.3,N
1654774035.6,286047003.4,N
1654774055.4,286047014.2,Y
1654774075.3,286047013.3,P
1654774095.1,286047011.0,N
1654774115.9,286047007.7,N
1654774135.7,286047010.1,N
1654774155.5,286047008.2,N
1654774175.4,286047008.5,N
1654774195.2,286047009.2,N
1654774215.0,286047006.8,N
1654774215.9,286047006.8,N
1654774235.8,286047007.4,N
1654774255.6,286047005.2,N
1654774275.5,286047005.8,N
1654774295.3,286047005.5,N
1654774315.1,286047003.6,N
1654774335.9,286047002.9,N
1654774355.7,286047003.0,N
1654774375.5,286047005.5,N
1654774395.4,286047003.3,N
1654774415.2,286047003.7,N
1654774435.1,286047003.2,N
1654774436.0,286047003.2,N
1654774455.8,286047003.7,N
1654774475.6,286047001.6,N
1654774495.5,286047004.0,N
1654774515.3,286047001.8,N
1654774535.2,286047001.8,N
1654774555.9,286047002.0,N
1654774575.7,286047001.4,N
1654774595.6,286047004.3,N
1654774615.4,286047003.9,N
1654774635.2,286047004.0,N
1654774655.1,286047004.0,N
1654774656.0,286047004.0,N
1654774675.8,286047001.6,N
1654774695.7,286047001.9,N
1654774715.5,286047002.4,N
1654774735.3,286047002.5,N
1654774755.2,286047002.7,N
1654774775.0,286047001.5,N
1654774775.9,286047001.5,N
1654774795.7,286047002.5,N
1654774815.6,286046999.7,N
1654774835.4,286046999.9,N
1654774855.3,286046999.7,N
1654774875.1,286047002.8,N
1654774876.0,286047002.8,N
1654774895.8,286046999.9,N
1654774915.7,286046999.9,N
1654774935.5,286047000.1,N
1654774955.4,286047002.8,N
1654774975.2,286047002.7,N
1654774995.0,286047001.0,N
1654774995.9,286047001.0,N
1654775015.8,286047002.4,N
1654775035.6,286047000.1,N
1654775055.4,286047002.6,N
1654775075.3,286047002.5,N
1654775095.1,286047001.7,N
1654775115.9,286047002.6,N
1654775135.7,286047001.4,N
1654775155.5,286047004.4,Y
1654775175.4,286047002.4,P
1654775195.2,286046999.8,N
1654775215.0,286047000.5,N
1654775216.0,286047000.5,N
1654775235.8,286047002.6,N
1654775255.6,286047000.6,N
1654775275.5,286047000.5,N
1654775295.3,286047000.9,N
1654775315.1,286047000.0,N
1654775335.9,286046999.9,N
1654775355.7,286047000.5,N
1654775375.6,286047000.7,N
1654775395.4,286047000.3,N
1654775415.2,286046999.7,N
1654775435.1,286046999.8,N
1654775436.0,286046999.8,N
1654775455.8,286046999.8,N
1654775475.6,286047002.8,Y
1654775495.5,286047002.3,P
1654775515.3,286047002.1,N
1654775535.2,286047000.1,N
1654775555.9,286047000.1,N
1654775575.7,286047000.5,N
1654775595.6,286047000.7,N
1654775615.4,286046997.2,Y
1654775635.2,286046995.8,P
1654775655.1,286046997.4,N
1654775656.0,286046997.4,N
1654775675.8,286046999.6,N
1654775695.7,286046996.6,N
1654775715.5,286046997.0,N
1654775735.3,286046997.3,N
1654775755.2,286046995.5,N
1654775775.0,286046995.6,N
1654775775.9,286046995.6,N
1654775795.8,286046996.0,N
1654775815.6,286046998.0,N
1654775835.4,286046995.1,Y
1654775855.3,286046998.2,P
1654775875.1,286046998.1,P
1654775895.8,286046998.2,P
1654775915.7,286046998.9,N
1654775935.5,286046999.3,N
1654775955.4,286046996.8,Y
1654775975.2,286047001.2,P
1654775995.0,286047001.2,N
1654775995.9,286047001.2,N
